Location: Bannatyne
(13.0833°N, 59.5333°W)
Time: 00:58:23
(UTC+00:00)

Transit 4A - Pass Details

Date: 26 January 2021
Orbit: 866 x 978 km, 66.8° (Epoch: 03 March)

Event Time Altitude Azimuth Distance (km) Brightness Sun altitude
Exits shadow 09:59:58 - 290° (WNW) 2,759 9.7 -6.6°
Reaches altitude 10° 10:01:03 10° 281° (WNW) 2,549 9.5 -6.4°
Maximum altitude 10:03:41 13° 254° (WSW) 2,308 9.5 -5.8°
Drops below altitude 10° 10:06:19 10° 227° (SW) 2,522 9.9 -5.2°
Sets 10:10:14 0° 201° (SSW) 3,446 10.9 -4.3°
